Torna al catalogo

FENGYUN 1C DEB

AttivoSSO
NORAD 29963·DEBRIS·🇨🇳 China

Lanciato May 10, 1999 da Taiyuan Satellite Launch Center

Loading…

Prossimi Passaggi (prossime 24 ore)

TLE

AggiornatoSource: Space-Track

Epoca: Sep 14, 2026, 10:35 UTC

1 29963U 99025KM  26257.44108728  .00000688  00000-0  28004-3 0  9999
2 29963  98.9704 155.1951 0049822 220.2334 194.4247 14.30185554 20803

Traccia FENGYUN 1C DEB in tempo reale con AllMySat

Download on the App Store